Location: Albuquerque Trailhead
(34.7934°N, 106.3736°W)
Time: 01:37:09
(UTC+00:00)

Helios 1B rocket - Pass Details

Date: 20 June 2021
Orbit: 573 x 583 km, 98.2° (Epoch: 27 July)

Event Time Altitude Azimuth Distance (km) Brightness Sun altitude
Rises 08:49:36 0° 12° (NNE) 2,789 7.1 -26.9°
Reaches altitude 10° 08:51:45 10° 12° (NNE) 1,886 6.0 -26.7°
Enters shadow 08:54:58 55° 11° (N) 694 3.0 -26.4°
